,,,PA_Meas_PMT16A,,PR_Meas_QMR101_102,,RH_Meas_QMH101,,SR_Meas_QMS101,,TA_Meas_QMH101,,GenWind,,GenWind,
date,time,status,PA,status,PR,status,RH,status,SR,status,TA,status,DirAvg,status,SpdAvg,
2009-03-22, 00:00:04,VALID,1010.26,VALID,0,VALID,81.6566,VALID,0,VALID,24.5515,VALID,227,VALID,0,
2009-03-22, 00:01:04,VALID,1010.24,VALID,0,VALID,81.5422,VALID,0,VALID,24.532,VALID,227,VALID,0,
2009-03-22, 00:02:04,VALID,1010.23,VALID,0,VALID,81.3668,VALID,0,VALID,24.4735,VALID,227,VALID,0,
2009-03-22, 00:03:04,VALID,1010.23,VALID,0,VALID,81.4964,VALID,0,VALID,24.454,VALID,227,VALID,0,
2009-03-22, 00:04:04,VALID,1010.22,VALID,0,VALID,81.6032,VALID,0,VALID,24.4345,VALID,227,VALID,0,
2009-03-22, 00:05:04,VALID,1010.23,VALID,0,VALID,81.6871,VALID,0,VALID,24.3956,VALID,227,VALID,0,
2009-03-22, 00:06:04,VALID,1010.21,VALID,0,VALID,81.8167,VALID,0,VALID,24.3956,VALID,227,VALID,0,
2009-03-22, 00:07:04,VALID,1010.23,VALID,0,VALID,82.076,VALID,0,VALID,24.3547,VALID,227,VALID,0,
2009-03-22, 00:08:04,VALID,1010.21,VALID,0,VALID,82.4039,VALID,0,VALID,24.3956,VALID,227,VALID,0,
2009-03-22, 00:09:04,VALID,1010.22,VALID,0,VALID,82.5945,VALID,0,VALID,24.3566,VALID,227,VALID,0,
2009-03-22, 00:10:04,VALID,1010.24,VALID,0,VALID,82.7547,VALID,0,VALID,24.3371,VALID,227,VALID,0,
2009-03-22, 00:11:04,VALID,1010.26,VALID,0,VALID,82.8538,VALID,0,VALID,24.3371,VALID,227,VALID,0,
2009-03-22, 00:12:04,VALID,1010.28,VALID,0,VALID,83.0063,VALID,0,VALID,24.3352,VALID,227,VALID,0,
2009-03-22, 00:13:04,VALID,1010.3,VALID,0,VALID,83.136,VALID,0.105969,VALID,24.3334,VALID,227,VALID,0,
2009-03-22, 00:14:04,VALID,1010.27,VALID,0,VALID,83.1436,VALID,0.105969,VALID,24.3334,VALID,227,VALID,0,
2009-03-22, 00:15:04,VALID,1010.29,VALID,0,VALID,83.0521,VALID,0,VALID,24.3158,VALID,227,VALID,0,
2009-03-22, 00:16:04,VALID,1010.3,VALID,0,VALID,83.014,VALID,0.105969,VALID,24.2555,VALID,227,VALID,0,
2009-03-22, 00:17:04,VALID,1010.31,VALID,0,VALID,83.0978,VALID,0.105969,VALID,24.2165,VALID,357,VALID,0,
2009-03-22, 00:18:04,VALID,1010.27,VALID,0,VALID,83.2198,VALID,0.105969,VALID,24.197,VALID,10,VALID,0,
2009-03-22, 00:19:04,VALID,1010.29,VALID,0,VALID,83.3419,VALID,0.105969,VALID,24.197,VALID,13,VALID,0,
2009-03-22, 00:20:04,VALID,1010.25,VALID,0,VALID,83.38,VALID,0.105969,VALID,24.1988,VALID,13,VALID,0,
2009-03-22, 00:21:04,VALID,1010.28,VALID,0,VALID,83.4105,VALID,0.105969,VALID,24.1385,VALID,13,VALID,0,
2009-03-22, 00:22:04,VALID,1010.27,VALID,0,VALID,83.4791,VALID,0.105969,VALID,24.1191,VALID,13,VALID,0,
2009-03-22, 00:23:04,VALID,1010.25,VALID,0,VALID,83.5401,VALID,0.105969,VALID,24.0996,VALID,13,VALID,0,
2009-03-22, 00:24:04,VALID,1010.19,VALID,0,VALID,83.6469,VALID,0,VALID,24.1032,VALID,13,VALID,0,
2009-03-22, 00:25:04,VALID,1010.19,VALID,0,VALID,83.6774,VALID,0,VALID,24.0837,VALID,71,VALID,0.716016,
2009-03-22, 00:26:04,VALID,1010.22,VALID,0,VALID,83.7384,VALID,0,VALID,24.0837,VALID,71,VALID,0.589844,
2009-03-22, 00:27:04,VALID,1010.23,VALID,0,VALID,83.7308,VALID,0,VALID,24.0624,VALID,55,VALID,0.454297,
2009-03-22, 00:28:04,VALID,1010.19,VALID,0,VALID,83.7308,VALID,0.105969,VALID,24.1014,VALID,55,VALID,0.146875,
2009-03-22, 00:29:04,VALID,1010.16,VALID,0,VALID,83.7155,VALID,0.105969,VALID,24.0801,VALID,55,VALID,0,
2009-03-22, 00:30:04,VALID,1010.14,VALID,0,VALID,83.7155,VALID,0.105969,VALID,24.0819,VALID,55,VALID,0,
2009-03-22, 00:31:04,VALID,1010.11,VALID,0,VALID,83.7079,VALID,0.105969,VALID,24.0624,VALID,55,VALID,0,
2009-03-22, 00:32:04,VALID,1010.12,VALID,0,VALID,83.6926,VALID,0.105969,VALID,24.0411,VALID,55,VALID,0,
2009-03-22, 00:33:04,VALID,1010.1,VALID,0,VALID,83.6469,VALID,0.105969,VALID,24.0216,VALID,55,VALID,0.129688,
2009-03-22, 00:34:04,VALID,1010.12,VALID,0,VALID,83.6011,VALID,0.105969,VALID,24.0022,VALID,55,VALID,0.378516,
2009-03-22, 00:35:04,VALID,1010.15,VALID,0,VALID,83.6088,VALID,0.105969,VALID,23.9827,VALID,55,VALID,0.0945313,
2009-03-22, 00:36:04,VALID,1010.16,VALID,0,VALID,83.563,VALID,0.105969,VALID,23.9827,VALID,55,VALID,0,
2009-03-22, 00:37:04,VALID,1010.18,VALID,0,VALID,83.563,VALID,0.105969,VALID,23.9632,VALID,55,VALID,0,
2009-03-22, 00:38:04,VALID,1010.2,VALID,0,VALID,83.502,VALID,0.105969,VALID,23.9632,VALID,55,VALID,0,
2009-03-22, 00:39:04,VALID,1010.21,VALID,0,VALID,83.5249,VALID,0.105969,VALID,23.9632,VALID,55,VALID,0,
2009-03-22, 00:40:04,VALID,1010.19,VALID,0,VALID,83.6011,VALID,0.105969,VALID,23.9827,VALID,55,VALID,0,
2009-03-22, 00:41:04,VALID,1010.18,VALID,0,VALID,83.6545,VALID,0.105969,VALID,23.9827,VALID,55,VALID,0,
2009-03-22, 00:42:04,VALID,1010.14,VALID,0,VALID,83.7155,VALID,0.105969,VALID,24.0022,VALID,55,VALID,0,
2009-03-22, 00:43:04,VALID,1010.1,VALID,0,VALID,83.7613,VALID,0,VALID,24.0235,VALID,55,VALID,0,
2009-03-22, 00:44:04,VALID,1010.12,VALID,0,VALID,83.7689,VALID,0,VALID,24.0448,VALID,55,VALID,0,
2009-03-22, 00:45:04,VALID,1010.05,VALID,0,VALID,83.7918,VALID,0,VALID,24.0235,VALID,55,VALID,0,
2009-03-22, 00:46:04,VALID,1010.09,VALID,0,VALID,83.8452,VALID,0,VALID,24.0448,VALID,55,VALID,0,
2009-03-22, 00:47:04,VALID,1010.04,VALID,0,VALID,83.8528,VALID,0,VALID,24.0429,VALID,55,VALID,0,
2009-03-22, 00:48:04,VALID,1010.02,VALID,0,VALID,83.8604,VALID,0,VALID,24.0624,VALID,55,VALID,0,
2009-03-22, 00:49:04,VALID,1010.02,VALID,0,VALID,83.8528,VALID,0,VALID,24.0624,VALID,55,VALID,0,
2009-03-22, 00:50:04,VALID,1010,VALID,0,VALID,83.8833,VALID,0,VALID,24.0837,VALID,55,VALID,0,
2009-03-22, 00:51:04,VALID,1009.97,VALID,0,VALID,83.8909,VALID,0,VALID,24.0837,VALID,55,VALID,0,
2009-03-22, 00:52:04,VALID,1009.99,VALID,0,VALID,83.8909,VALID,0,VALID,24.0643,VALID,55,VALID,0,
2009-03-22, 00:53:04,VALID,1009.91,VALID,0,VALID,83.8909,VALID,0,VALID,24.0643,VALID,55,VALID,0,
2009-03-22, 00:54:04,VALID,1009.92,VALID,0,VALID,83.8833,VALID,0,VALID,24.0429,VALID,55,VALID,0,
2009-03-22, 00:55:04,VALID,1009.89,VALID,0,VALID,83.8909,VALID,0,VALID,24.0235,VALID,44,VALID,0.516406,
2009-03-22, 00:56:04,VALID,1009.88,VALID,0,VALID,83.868,VALID,0,VALID,24.0253,VALID,28,VALID,0.570703,
2009-03-22, 00:57:04,VALID,1009.91,VALID,0,VALID,83.8604,VALID,0,VALID,24.004,VALID,26,VALID,0.539063,
2009-03-22, 00:58:04,VALID,1009.88,VALID,0,VALID,83.8528,VALID,0,VALID,24.0058,VALID,22,VALID,0.526953,
2009-03-22, 00:59:04,VALID,1009.9,VALID,0,VALID,83.8604,VALID,0,VALID,23.9473,VALID,22,VALID,0.453125,
2009-03-22, 01:00:04,VALID,1009.89,VALID,0,VALID,83.9138,VALID,0,VALID,23.9278,VALID,22,VALID,0.491406,
2009-03-22, 01:01:04,VALID,1009.89,VALID,0,VALID,83.9977,VALID,0,VALID,23.9084,VALID,22,VALID,0.418359,
2009-03-22, 01:02:04,VALID,1009.9,VALID,0,VALID,84.1197,VALID,0,VALID,23.9278,VALID,22,VALID,0.332422,
2009-03-22, 01:03:04,VALID,1009.89,VALID,0,VALID,84.1807,VALID,0,VALID,23.9102,VALID,22,VALID,0.499609,
2009-03-22, 01:04:04,VALID,1009.89,VALID,0,VALID,84.1959,VALID,0,VALID,23.9084,VALID,22,VALID,0.403906,
2009-03-22, 01:05:04,VALID,1009.91,VALID,0,VALID,84.2264,VALID,0,VALID,23.8694,VALID,22,VALID,0.386328,
2009-03-22, 01:06:04,VALID,1009.94,VALID,0,VALID,84.2722,VALID,0,VALID,23.8694,VALID,22,VALID,0.279687,
2009-03-22, 01:07:04,VALID,1009.95,VALID,0,VALID,84.2875,VALID,0,VALID,23.8499,VALID,22,VALID,0,
2009-03-22, 01:08:04,VALID,1009.96,VALID,0,VALID,84.3256,VALID,0,VALID,23.8304,VALID,22,VALID,0,
2009-03-22, 01:09:04,VALID,1009.96,VALID,0,VALID,84.3561,VALID,0,VALID,23.8109,VALID,22,VALID,0,
2009-03-22, 01:10:04,VALID,1009.97,VALID,0,VALID,84.3637,VALID,0,VALID,23.8127,VALID,22,VALID,0,
2009-03-22, 01:11:04,VALID,1009.97,VALID,0,VALID,84.4018,VALID,0,VALID,23.7914,VALID,22,VALID,0,
2009-03-22, 01:12:04,VALID,1009.97,VALID,0,VALID,84.4171,VALID,0,VALID,23.772,VALID,22,VALID,0,
2009-03-22, 01:13:04,VALID,1009.97,VALID,0,VALID,84.4171,VALID,0.105969,VALID,23.7507,VALID,22,VALID,0,
2009-03-22, 01:14:04,VALID,1009.94,VALID,0,VALID,84.4552,VALID,0.105969,VALID,23.7701,VALID,22,VALID,0,
2009-03-22, 01:15:04,VALID,1009.91,VALID,0,VALID,84.4705,VALID,0.105969,VALID,23.7701,VALID,49,VALID,0,
2009-03-22, 01:16:04,VALID,1009.91,VALID,0,VALID,84.4628,VALID,0.105969,VALID,23.7896,VALID,50,VALID,0,
2009-03-22, 01:17:04,VALID,1009.87,VALID,0,VALID,84.4628,VALID,0.105969,VALID,23.8091,VALID,50,VALID,0,
2009-03-22, 01:18:04,VALID,1009.89,VALID,0,VALID,84.4171,VALID,0.105969,VALID,23.7878,VALID,50,VALID,0,
2009-03-22, 01:19:04,VALID,1009.88,VALID,0,VALID,84.4095,VALID,0.105969,VALID,23.7896,VALID,50,VALID,0,
2009-03-22, 01:20:04,VALID,1009.88,VALID,0,VALID,84.379,VALID,0.105969,VALID,23.7896,VALID,50,VALID,0,
2009-03-22, 01:21:04,VALID,1009.85,VALID,0,VALID,84.3713,VALID,0.105969,VALID,23.8091,VALID,50,VALID,0,
2009-03-22, 01:22:04,VALID,1009.85,VALID,0,VALID,84.379,VALID,0,VALID,23.8091,VALID,50,VALID,0,
2009-03-22, 01:23:04,VALID,1009.85,VALID,0,VALID,84.3866,VALID,0.105969,VALID,23.8091,VALID,50,VALID,0,
2009-03-22, 01:24:04,VALID,1009.85,VALID,0,VALID,84.3637,VALID,0.105969,VALID,23.8091,VALID,50,VALID,0,
2009-03-22, 01:25:04,VALID,1009.86,VALID,0,VALID,84.3713,VALID,0,VALID,23.8091,VALID,50,VALID,0,
2009-03-22, 01:26:04,VALID,1009.84,VALID,0,VALID,84.3561,VALID,0.105969,VALID,23.8091,VALID,50,VALID,0,
2009-03-22, 01:27:04,VALID,1009.86,VALID,0,VALID,84.318,VALID,0.105969,VALID,23.7896,VALID,50,VALID,0,
2009-03-22, 01:28:04,VALID,1009.85,VALID,0,VALID,84.2951,VALID,0,VALID,23.8109,VALID,50,VALID,0,
2009-03-22, 01:29:04,VALID,1009.84,VALID,0,VALID,84.2646,VALID,0,VALID,23.7914,VALID,50,VALID,0,
2009-03-22, 01:30:04,VALID,1009.83,VALID,0,VALID,84.2112,VALID,0,VALID,23.7914,VALID,50,VALID,0,
2009-03-22, 01:31:04,VALID,1009.81,VALID,0,VALID,84.1502,VALID,0,VALID,23.7932,VALID,66,VALID,0,
2009-03-22, 01:32:04,VALID,1009.79,VALID,0,VALID,84.1197,VALID,0,VALID,23.772,VALID,74,VALID,0,
2009-03-22, 01:33:04,VALID,1009.77,VALID,0,VALID,84.0358,VALID,0,VALID,23.772,VALID,74,VALID,0,
2009-03-22, 01:34:04,VALID,1009.75,VALID,0,VALID,83.9672,VALID,0,VALID,23.772,VALID,74,VALID,0,
2009-03-22, 01:35:04,VALID,1009.72,VALID,0,VALID,83.8833,VALID,0,VALID,23.7525,VALID,74,VALID,0,
2009-03-22, 01:36:04,VALID,1009.69,VALID,0,VALID,83.868,VALID,0,VALID,23.772,VALID,74,VALID,0,
2009-03-22, 01:37:04,VALID,1009.65,VALID,0,VALID,83.8223,VALID,0,VALID,23.772,VALID,73,VALID,0,
2009-03-22, 01:38:04,VALID,1009.62,VALID,0,VALID,83.7918,VALID,0,VALID,23.772,VALID,73,VALID,0,
2009-03-22, 01:39:04,VALID,1009.6,VALID,0,VALID,83.7918,VALID,0,VALID,23.7525,VALID,73,VALID,0,
2009-03-22, 01:40:04,VALID,1009.59,VALID,0,VALID,83.7613,VALID,0,VALID,23.7738,VALID,73,VALID,0,
2009-03-22, 01:41:05,VALID,1009.57,VALID,0,VALID,83.7842,VALID,0,VALID,23.7525,VALID,73,VALID,0,
2009-03-22, 01:42:05,VALID,1009.56,VALID,0,VALID,83.7765,VALID,0,VALID,23.7525,VALID,73,VALID,0,
2009-03-22, 01:43:05,VALID,1009.56,VALID,0,VALID,83.7918,VALID,0,VALID,23.733,VALID,73,VALID,0,
2009-03-22, 01:44:05,VALID,1009.55,VALID,0,VALID,83.807,VALID,0,VALID,23.733,VALID,73,VALID,0,
2009-03-22, 01:45:05,VALID,1009.53,VALID,0,VALID,83.8299,VALID,0,VALID,23.733,VALID,73,VALID,0,
2009-03-22, 01:46:05,VALID,1009.54,VALID,0,VALID,83.8375,VALID,0,VALID,23.733,VALID,73,VALID,0,
2009-03-22, 01:47:05,VALID,1009.55,VALID,0,VALID,83.8528,VALID,0,VALID,23.733,VALID,73,VALID,0,
2009-03-22, 01:48:05,VALID,1009.57,VALID,0,VALID,83.868,VALID,0,VALID,23.7135,VALID,73,VALID,0,
2009-03-22, 01:49:05,VALID,1009.56,VALID,0,VALID,83.8985,VALID,0,VALID,23.7348,VALID,73,VALID,0,
2009-03-22, 01:50:05,VALID,1009.55,VALID,0,VALID,83.9062,VALID,0,VALID,23.694,VALID,73,VALID,0,
2009-03-22, 01:51:05,VALID,1009.55,VALID,0,VALID,83.9367,VALID,0,VALID,23.7135,VALID,73,VALID,0,
2009-03-22, 01:52:05,VALID,1009.57,VALID,0,VALID,83.9443,VALID,0,VALID,23.694,VALID,73,VALID,0,
2009-03-22, 01:53:05,VALID,1009.58,VALID,0,VALID,83.9977,VALID,0,VALID,23.7135,VALID,73,VALID,0,
2009-03-22, 01:54:05,VALID,1009.58,VALID,0,VALID,84.0206,VALID,0,VALID,23.733,VALID,73,VALID,0,
2009-03-22, 01:55:05,VALID,1009.59,VALID,0,VALID,84.0434,VALID,0,VALID,23.7348,VALID,38,VALID,0,
2009-03-22, 01:56:05,VALID,1009.59,VALID,0,VALID,84.0739,VALID,0,VALID,23.733,VALID,34,VALID,0,
2009-03-22, 01:57:05,VALID,1009.57,VALID,0,VALID,84.0968,VALID,0,VALID,23.7525,VALID,34,VALID,0,
2009-03-22, 01:58:05,VALID,1009.6,VALID,0,VALID,84.1349,VALID,0,VALID,23.772,VALID,34,VALID,0,
2009-03-22, 01:59:05,VALID,1009.56,VALID,0,VALID,84.1349,VALID,0,VALID,23.772,VALID,34,VALID,0,
2009-03-22, 02:00:05,VALID,1009.58,VALID,0,VALID,84.1197,VALID,0,VALID,23.7914,VALID,34,VALID,0,
2009-03-22, 02:01:05,VALID,1009.56,VALID,0,VALID,84.1121,VALID,0,VALID,23.7914,VALID,34,VALID,0,
2009-03-22, 02:02:05,VALID,1009.6,VALID,0,VALID,84.0816,VALID,0,VALID,23.7896,VALID,34,VALID,0,
2009-03-22, 02:03:05,VALID,1009.55,VALID,0,VALID,84.0587,VALID,0,VALID,23.7896,VALID,34,VALID,0,
2009-03-22, 02:04:05,VALID,1009.53,VALID,0,VALID,84.0663,VALID,0,VALID,23.8109,VALID,34,VALID,0,
2009-03-22, 02:05:05,VALID,1009.52,VALID,0,VALID,84.0358,VALID,0,VALID,23.8109,VALID,21,VALID,0,
2009-03-22, 02:06:05,VALID,1009.54,VALID,0,VALID,83.9977,VALID,0,VALID,23.7914,VALID,15,VALID,0,
2009-03-22, 02:07:05,VALID,1009.55,VALID,0,VALID,83.9977,VALID,0,VALID,23.7914,VALID,15,VALID,0,
2009-03-22, 02:08:05,VALID,1009.5,VALID,0,VALID,84.0053,VALID,0,VALID,23.8109,VALID,15,VALID,0,
2009-03-22, 02:09:05,VALID,1009.51,VALID,0,VALID,83.9901,VALID,0,VALID,23.8109,VALID,15,VALID,0,
2009-03-22, 02:10:05,VALID,1009.54,VALID,0,VALID,83.9824,VALID,0,VALID,23.8109,VALID,15,VALID,0,
2009-03-22, 02:11:05,VALID,1009.52,VALID,0,VALID,83.9748,VALID,0,VALID,23.8109,VALID,15,VALID,0,
2009-03-22, 02:12:05,VALID,1009.53,VALID,0,VALID,83.9748,VALID,0,VALID,23.8304,VALID,16,VALID,0,
2009-03-22, 02:13:05,VALID,1009.51,VALID,0,VALID,83.9672,VALID,0,VALID,23.8109,VALID,16,VALID,0,
2009-03-22, 02:14:05,VALID,1009.52,VALID,0,VALID,83.9443,VALID,0,VALID,23.8304,VALID,16,VALID,0,
2009-03-22, 02:15:05,VALID,1009.54,VALID,0,VALID,83.9138,VALID,0,VALID,23.8109,VALID,16,VALID,0,
2009-03-22, 02:16:05,VALID,1009.5,VALID,0,VALID,83.9138,VALID,0,VALID,23.7914,VALID,14,VALID,0,
2009-03-22, 02:17:05,VALID,1009.5,VALID,0,VALID,83.9062,VALID,0,VALID,23.772,VALID,14,VALID,0,
2009-03-22, 02:18:05,VALID,1009.45,VALID,0,VALID,83.929,VALID,0,VALID,23.7525,VALID,14,VALID,0,
2009-03-22, 02:19:05,VALID,1009.47,VALID,0,VALID,83.9595,VALID,0,VALID,23.7525,VALID,14,VALID,0,
2009-03-22, 02:20:05,VALID,1009.45,VALID,0,VALID,83.9748,VALID,0,VALID,23.733,VALID,14,VALID,0,
2009-03-22, 02:21:05,VALID,1009.51,VALID,0,VALID,84.0282,VALID,0,VALID,23.7135,VALID,339,VALID,0,
2009-03-22, 02:22:05,VALID,1009.49,VALID,0,VALID,84.0892,VALID,0,VALID,23.694,VALID,339,VALID,0,
2009-03-22, 02:23:05,VALID,1009.51,VALID,0,VALID,84.1578,VALID,0,VALID,23.733,VALID,351,VALID,0,
2009-03-22, 02:24:05,VALID,1009.55,VALID,0,VALID,84.1883,VALID,0,VALID,23.7117,VALID,5,VALID,0,
2009-03-22, 02:25:05,VALID,1009.56,VALID,0,VALID,84.2264,VALID,0,VALID,23.7117,VALID,5,VALID,0,
2009-03-22, 02:26:05,VALID,1009.52,VALID,0,VALID,84.2188,VALID,0,VALID,23.7135,VALID,5,VALID,0,
2009-03-22, 02:27:05,VALID,1009.51,VALID,0,VALID,84.2264,VALID,0,VALID,23.6922,VALID,5,VALID,0,
2009-03-22, 02:28:05,VALID,1009.53,VALID,0,VALID,84.2417,VALID,0,VALID,23.694,VALID,5,VALID,0,
2009-03-22, 02:29:05,VALID,1009.53,VALID,0,VALID,84.2417,VALID,0,VALID,23.7135,VALID,5,VALID,0,
2009-03-22, 02:30:05,VALID,1009.53,VALID,0,VALID,84.2493,VALID,0,VALID,23.694,VALID,5,VALID,0,
2009-03-22, 02:31:05,VALID,1009.54,VALID,0,VALID,84.2646,VALID,0,VALID,23.6727,VALID,5,VALID,0,
2009-03-22, 02:32:05,VALID,1009.53,VALID,0,VALID,84.2798,VALID,0,VALID,23.694,VALID,5,VALID,0,
2009-03-22, 02:33:05,VALID,1009.53,VALID,0,VALID,84.3256,VALID,0,VALID,23.694,VALID,5,VALID,0,
2009-03-22, 02:34:05,VALID,1009.55,VALID,0,VALID,84.3256,VALID,0,VALID,23.6727,VALID,5,VALID,0,
2009-03-22, 02:35:05,VALID,1009.54,VALID,0,VALID,84.3485,VALID,0,VALID,23.694,VALID,5,VALID,0,
2009-03-22, 02:36:05,VALID,1009.54,VALID,0,VALID,84.3561,VALID,0,VALID,23.694,VALID,5,VALID,0,
2009-03-22, 02:37:05,VALID,1009.55,VALID,0,VALID,84.3866,VALID,0,VALID,23.694,VALID,5,VALID,0,
2009-03-22, 02:38:05,VALID,1009.55,VALID,0,VALID,84.4018,VALID,0,VALID,23.6727,VALID,5,VALID,0,
2009-03-22, 02:39:05,VALID,1009.51,VALID,0,VALID,84.4247,VALID,0,VALID,23.6745,VALID,5,VALID,0,
2009-03-22, 02:40:05,VALID,1009.49,VALID,0,VALID,84.4323,VALID,0,VALID,23.6532,VALID,5,VALID,0,
2009-03-22, 02:41:05,VALID,1009.47,VALID,0,VALID,84.4552,VALID,0,VALID,23.655,VALID,5,VALID,0,
2009-03-22, 02:42:05,VALID,1009.48,VALID,0,VALID,84.4705,VALID,0,VALID,23.655,VALID,5,VALID,0,
2009-03-22, 02:43:05,VALID,1009.47,VALID,0,VALID,84.501,VALID,0.105969,VALID,23.6532,VALID,5,VALID,0,
2009-03-22, 02:44:05,VALID,1009.45,VALID,0,VALID,84.5315,VALID,0.105969,VALID,23.6532,VALID,5,VALID,0,
2009-03-22, 02:45:05,VALID,1009.44,VALID,0,VALID,84.5544,VALID,0.105969,VALID,23.6338,VALID,5,VALID,0,
2009-03-22, 02:46:05,VALID,1009.42,VALID,0,VALID,84.562,VALID,0.105969,VALID,23.6532,VALID,5,VALID,0,
2009-03-22, 02:47:05,VALID,1009.4,VALID,0,VALID,84.6001,VALID,0.105969,VALID,23.6532,VALID,5,VALID,0,
2009-03-22, 02:48:05,VALID,1009.42,VALID,0,VALID,84.5772,VALID,0.105969,VALID,23.6125,VALID,5,VALID,0,
2009-03-22, 02:49:05,VALID,1009.38,VALID,0,VALID,84.5925,VALID,0.105969,VALID,23.6338,VALID,5,VALID,0,
2009-03-22, 02:50:05,VALID,1009.42,VALID,0,VALID,84.6077,VALID,0.105969,VALID,23.6143,VALID,5,VALID,0,
2009-03-22, 02:51:05,VALID,1009.45,VALID,0,VALID,84.5849,VALID,0.105969,VALID,23.6143,VALID,5,VALID,0,
2009-03-22, 02:52:05,VALID,1009.47,VALID,0,VALID,84.6154,VALID,0.105969,VALID,23.6143,VALID,5,VALID,0,
2009-03-22, 02:53:05,VALID,1009.47,VALID,0,VALID,84.6077,VALID,0.105969,VALID,23.5948,VALID,5,VALID,0,
2009-03-22, 02:54:05,VALID,1009.5,VALID,0,VALID,84.623,VALID,0.105969,VALID,23.5753,VALID,5,VALID,0,
2009-03-22, 02:55:05,VALID,1009.47,VALID,0,VALID,84.6154,VALID,0.105969,VALID,23.554,VALID,5,VALID,0,
2009-03-22, 02:56:05,VALID,1009.52,VALID,0,VALID,84.6459,VALID,0.105969,VALID,23.5346,VALID,5,VALID,0,
2009-03-22, 02:57:05,VALID,1009.47,VALID,0,VALID,84.6687,VALID,0.105969,VALID,23.554,VALID,5,VALID,0,
2009-03-22, 02:58:05,VALID,1009.45,VALID,0,VALID,84.7069,VALID,0,VALID,23.5771,VALID,5,VALID,0,
2009-03-22, 02:59:05,VALID,1009.42,VALID,0,VALID,84.7221,VALID,0,VALID,23.5966,VALID,5,VALID,0,
2009-03-22, 03:00:05,VALID,1009.41,VALID,0,VALID,84.7526,VALID,0,VALID,23.5558,VALID,5,VALID,0,
2009-03-22, 03:01:05,VALID,1009.39,VALID,0,VALID,84.7602,VALID,0,VALID,23.5771,VALID,5,VALID,0,
2009-03-22, 03:02:05,VALID,1009.41,VALID,0,VALID,84.7526,VALID,0,VALID,23.5771,VALID,5,VALID,0,
2009-03-22, 03:03:05,VALID,1009.4,VALID,0,VALID,84.7755,VALID,0,VALID,23.5576,VALID,5,VALID,0,
2009-03-22, 03:04:05,VALID,1009.41,VALID,0,VALID,84.7831,VALID,0,VALID,23.5169,VALID,5,VALID,0,
2009-03-22, 03:05:05,VALID,1009.39,VALID,0,VALID,84.7755,VALID,0,VALID,23.5186,VALID,5,VALID,0,
2009-03-22, 03:06:05,VALID,1009.43,VALID,0,VALID,84.7679,VALID,0,VALID,23.4797,VALID,5,VALID,0,
2009-03-22, 03:07:05,VALID,1009.45,VALID,0,VALID,84.7679,VALID,0,VALID,23.4602,VALID,5,VALID,0,
2009-03-22, 03:08:05,VALID,1009.44,VALID,0,VALID,84.7755,VALID,0,VALID,23.4407,VALID,5,VALID,0,
2009-03-22, 03:09:05,VALID,1009.48,VALID,0,VALID,84.7755,VALID,0,VALID,23.4212,VALID,6,VALID,0,
2009-03-22, 03:10:05,VALID,1009.46,VALID,0,VALID,84.806,VALID,0,VALID,23.4212,VALID,85,VALID,0,
2009-03-22, 03:11:05,VALID,1009.47,VALID,0,VALID,84.8365,VALID,0,VALID,23.4602,VALID,85,VALID,0,
2009-03-22, 03:12:05,VALID,1009.48,VALID,0,VALID,84.8441,VALID,0,VALID,23.4407,VALID,91,VALID,0,
2009-03-22, 03:13:05,VALID,1009.48,VALID,0,VALID,84.8823,VALID,0,VALID,23.4584,VALID,92,VALID,0,
2009-03-22, 03:14:05,VALID,1009.51,VALID,0,VALID,84.9051,VALID,0.105969,VALID,23.4584,VALID,91,VALID,0,
2009-03-22, 03:15:05,VALID,1009.58,VALID,0,VALID,84.9051,VALID,0,VALID,23.4584,VALID,91,VALID,0,
2009-03-22, 03:16:05,VALID,1009.63,VALID,0,VALID,84.9051,VALID,0.105969,VALID,23.4584,VALID,91,VALID,0,
2009-03-22, 03:17:05,VALID,1009.66,VALID,0,VALID,84.9204,VALID,0,VALID,23.4584,VALID,91,VALID,0,
2009-03-22, 03:18:05,VALID,1009.69,VALID,0,VALID,84.9204,VALID,0.105969,VALID,23.4584,VALID,91,VALID,0,
2009-03-22, 03:19:05,VALID,1009.73,VALID,0,VALID,84.9128,VALID,0,VALID,23.4779,VALID,91,VALID,0,
2009-03-22, 03:20:05,VALID,1009.75,VALID,0,VALID,84.8975,VALID,0,VALID,23.4779,VALID,91,VALID,0,
2009-03-22, 03:21:05,VALID,1009.78,VALID,0,VALID,84.9128,VALID,0.105969,VALID,23.4992,VALID,91,VALID,0,
2009-03-22, 03:22:05,VALID,1009.78,VALID,0,VALID,84.9204,VALID,0.105969,VALID,23.4584,VALID,91,VALID,0,
2009-03-22, 03:23:05,VALID,1009.76,VALID,0,VALID,84.8975,VALID,0,VALID,23.4584,VALID,91,VALID,0,
2009-03-22, 03:24:05,VALID,1009.75,VALID,0,VALID,84.9051,VALID,0,VALID,23.4584,VALID,91,VALID,0,
2009-03-22, 03:25:05,VALID,1009.72,VALID,0,VALID,84.9128,VALID,0,VALID,23.4779,VALID,91,VALID,0,
2009-03-22, 03:26:05,VALID,1009.71,VALID,0,VALID,84.9204,VALID,0,VALID,23.4779,VALID,91,VALID,0,
2009-03-22, 03:27:05,VALID,1009.68,VALID,0,VALID,84.8594,VALID,0,VALID,23.4194,VALID,91,VALID,0,
2009-03-22, 03:28:05,VALID,1009.66,VALID,0,VALID,84.8365,VALID,0,VALID,23.3805,VALID,91,VALID,0,
2009-03-22, 03:29:05,VALID,1009.63,VALID,0,VALID,84.8136,VALID,0,VALID,23.4,VALID,91,VALID,0,
2009-03-22, 03:30:05,VALID,1009.64,VALID,0,VALID,84.8365,VALID,0.105969,VALID,23.4,VALID,91,VALID,0,
2009-03-22, 03:31:05,VALID,1009.66,VALID,0,VALID,84.8213,VALID,0,VALID,23.3805,VALID,89,VALID,0,
2009-03-22, 03:32:05,VALID,1009.66,VALID,0,VALID,84.8441,VALID,0.105969,VALID,23.4,VALID,86,VALID,0,
2009-03-22, 03:33:05,VALID,1009.68,VALID,0,VALID,84.867,VALID,0.105969,VALID,23.4,VALID,83,VALID,0,
2009-03-22, 03:34:05,VALID,1009.71,VALID,0,VALID,84.8594,VALID,0,VALID,23.4389,VALID,73,VALID,0.579687,
2009-03-22, 03:35:05,VALID,1009.71,VALID,0,VALID,84.8594,VALID,0,VALID,23.4584,VALID,81,VALID,0.696875,
2009-03-22, 03:36:05,VALID,1009.69,VALID,0,VALID,84.8975,VALID,0.105969,VALID,23.4177,VALID,81,VALID,0.773047,
2009-03-22, 03:37:05,VALID,1009.7,VALID,0,VALID,84.8899,VALID,0.105969,VALID,23.4372,VALID,81,VALID,0.605859,
2009-03-22, 03:38:05,VALID,1009.71,VALID,0,VALID,84.867,VALID,0,VALID,23.4389,VALID,87,VALID,0.720312,
2009-03-22, 03:39:05,VALID,1009.69,VALID,0,VALID,84.8594,VALID,0.105969,VALID,23.4584,VALID,88,VALID,0.723047,
2009-03-22, 03:40:05,VALID,1009.72,VALID,0,VALID,84.8518,VALID,0.105969,VALID,23.4372,VALID,88,VALID,0.449219,
2009-03-22, 03:41:05,VALID,1009.7,VALID,0,VALID,84.8289,VALID,0.105969,VALID,23.4566,VALID,96,VALID,0.474609,
2009-03-22, 03:42:05,VALID,1009.7,VALID,0,VALID,84.8365,VALID,0.105969,VALID,23.4761,VALID,96,VALID,0.380469,
2009-03-22, 03:43:05,VALID,1009.72,VALID,0,VALID,84.7984,VALID,0,VALID,23.4779,VALID,96,VALID,0.544531,
2009-03-22, 03:44:05,VALID,1009.67,VALID,0,VALID,84.7755,VALID,0,VALID,23.4992,VALID,96,VALID,0.375781,
2009-03-22, 03:45:05,VALID,1009.66,VALID,0,VALID,84.7755,VALID,0,VALID,23.4797,VALID,96,VALID,0.075,
2009-03-22, 03:46:05,VALID,1009.68,VALID,0,VALID,84.7221,VALID,0,VALID,23.4797,VALID,96,VALID,0,
2009-03-22, 03:47:05,VALID,1009.68,VALID,0,VALID,84.6916,VALID,0,VALID,23.4602,VALID,96,VALID,0.0984375,
2009-03-22, 03:48:05,VALID,1009.68,VALID,0,VALID,84.6459,VALID,0,VALID,23.4194,VALID,167,VALID,0.528906,
2009-03-22, 03:49:05,VALID,1009.7,VALID,0,VALID,84.6306,VALID,0,VALID,23.4407,VALID,187,VALID,0.55,
2009-03-22, 03:50:05,VALID,1009.67,VALID,0,VALID,84.6459,VALID,0,VALID,23.4194,VALID,191,VALID,0.646094,
2009-03-22, 03:51:05,VALID,1009.67,VALID,0,VALID,84.6611,VALID,0,VALID,23.4407,VALID,195,VALID,0.461328,
2009-03-22, 03:52:05,VALID,1009.65,VALID,0,VALID,84.6611,VALID,0,VALID,23.4212,VALID,195,VALID,0.535937,
2009-03-22, 03:53:05,VALID,1009.64,VALID,0,VALID,84.6764,VALID,0,VALID,23.4212,VALID,194,VALID,0.559766,
2009-03-22, 03:54:05,VALID,1009.66,VALID,0,VALID,84.6992,VALID,0,VALID,23.4212,VALID,194,VALID,0.448438,
2009-03-22, 03:55:05,VALID,1009.67,VALID,0,VALID,84.7221,VALID,0,VALID,23.4212,VALID,194,VALID,0.436328,